Yankton, SD

12:25 PM CDT on August 30, 2016 (GMT -0500)
Gurney Municipal

Weather History for KYKN - November, 2011

Change the Weather History Date:

Wednesday, November 9, 2011

  Actual Average Record
Temperature  
Mean Temperature 36 °F -  
Max Temperature 46 °F 47 °F 75 °F (1999)
Min Temperature 26 °F 27 °F -2 °F (1991)
Degree Days  
Heating Degree Days 29    
Moisture  
Dew Point 20 °F    
Average Humidity 58    
Maximum Humidity 75    
Minimum Humidity 31    
Precipitation  
Precipitation 0.00 in - - ()
Sea Level Pressure  
Sea Level Pressure 30.22 in    
Wind  
Wind Speed 14 mph (WNW)    
Max Wind Speed 33 mph    
Max Gust Speed 38 mph    
Visibility 10 miles    
Events      
Averages and records for this station are not official NWS values.
T = Trace of Precipitation, MM = Missing Value Source: NWS Daily Summary

Daily Weather History Graph

Daily Weather History Graph

Search for Another Location

Airport or City:

Trip Planner

Search our weather history database for the weather conditions in past years. The results will help you decide how hot, cold, wet, or windy it might be!

Date:

Astronomy

Nov. 09, 2011 Rise Set
Actual Time 7:13 AM CST 5:12 PM CST
Civil Twilight 6:43 AM CST 5:42 PM CST
Nautical Twilight 6:09 AM CST 6:16 PM CST
Astronomical Twilight 5:36 AM CST 6:49 PM CST
Moon 4:24 PM CST (11/9) 6:10 AM CST (11/9)
Length of Visible Light 10h 58m
Length of Day
9h 58m
Waxing Gibbous, 99% of the Moon is Illuminated
Nov 9
Waxing Gibbous
Nov 10
Full
Nov 18
Last Quarter
Nov 25
New
Dec 2
First Quarter

Hourly Weather History & Observations

Time (CST) Temp. Windchill Dew Point Humidity Pressure Visibility Wind Dir Wind Speed Gust Speed Precip Events Conditions
12:15 AM 30.2 °F 21.3 °F 19.4 °F 64% 30.17 in 10.0 mi WNW 10.4 mph - N/A   Clear
12:35 AM 30.2 °F 22.6 °F 19.4 °F 64% 30.18 in 10.0 mi WNW 8.1 mph - N/A   Clear
12:55 AM 30.2 °F 23.4 °F 19.4 °F 64% 30.18 in 10.0 mi NW 6.9 mph - N/A   Clear
1:15 AM 28.4 °F 20.4 °F 19.4 °F 69% 30.18 in 10.0 mi NW 8.1 mph - N/A   Clear
1:55 AM 28.4 °F 19.7 °F 19.4 °F 69% 30.17 in 10.0 mi WNW 9.2 mph - N/A   Clear
2:15 AM 28.4 °F 22.2 °F 19.4 °F 69% 30.17 in 10.0 mi WNW 5.8 mph - N/A   Clear
2:35 AM 28.4 °F 23.3 °F 19.4 °F 69% 30.17 in 10.0 mi WNW 4.6 mph - N/A   Clear
2:55 AM 28.4 °F 20.4 °F 19.4 °F 69% 30.16 in 10.0 mi WNW 8.1 mph - N/A   Clear
4:15 AM 26.6 °F 17.5 °F 19.4 °F 74% 30.16 in 10.0 mi NW 9.2 mph - N/A   Clear
4:35 AM 26.6 °F 17.5 °F 19.4 °F 74% 30.16 in 10.0 mi West 9.2 mph - N/A   Clear
4:55 AM 30.2 °F 21.3 °F 19.4 °F 64% 30.16 in 10.0 mi WNW 10.4 mph - N/A   Clear
5:15 AM 28.4 °F 18.5 °F 19.4 °F 69% 30.17 in 10.0 mi WNW 11.5 mph - N/A   Clear
5:35 AM 28.4 °F 18.5 °F 19.4 °F 69% 30.18 in 10.0 mi NW 11.5 mph - N/A   Clear
5:55 AM 28.4 °F 17.5 °F 21.2 °F 74% 30.18 in 10.0 mi NW 13.8 mph - N/A   Clear
6:15 AM 28.4 °F 18.0 °F 19.4 °F 69% 30.19 in 10.0 mi NW 12.7 mph - N/A   Clear
6:35 AM 28.4 °F 17.0 °F 19.4 °F 69% 30.19 in 10.0 mi NW 15.0 mph - N/A   Clear
6:55 AM 28.4 °F 17.0 °F 21.2 °F 74% 30.20 in 10.0 mi NW 15.0 mph - N/A   Clear
7:15 AM 28.4 °F 17.0 °F 21.2 °F 74% 30.20 in 10.0 mi WNW 15.0 mph - N/A   Clear
7:35 AM 28.4 °F 17.5 °F 21.2 °F 74% 30.21 in 10.0 mi WNW 13.8 mph - N/A   Clear
7:55 AM 28.4 °F 18.0 °F 21.2 °F 74% 30.22 in 10.0 mi WNW 12.7 mph - N/A   Clear
8:15 AM 30.2 °F 19.3 °F 23.0 °F 75% 30.23 in 10.0 mi WNW 15.0 mph - N/A   Clear
8:35 AM 32.0 °F 23.0 °F 23.0 °F 69% 30.24 in 10.0 mi WNW 11.5 mph - N/A   Clear
8:55 AM 33.8 °F 23.9 °F 23.0 °F 65% 30.24 in 10.0 mi WNW 15.0 mph - N/A   Clear
9:15 AM 33.8 °F 22.8 °F 24.8 °F 70% 30.24 in 10.0 mi WNW 18.4 mph 21.9 mph N/A   Clear
9:35 AM 35.6 °F 25.9 °F 24.8 °F 65% 30.25 in 10.0 mi NW 16.1 mph - N/A   Clear
9:55 AM 35.6 °F 25.2 °F 24.8 °F 65% 30.25 in 10.0 mi WNW 18.4 mph 26.5 mph N/A   Clear
10:35 AM 39.2 °F 28.5 °F 24.8 °F 56% 30.26 in 10.0 mi NW 24.2 mph 29.9 mph N/A   Clear
10:55 AM 39.2 °F 29.0 °F 24.8 °F 56% 30.26 in 10.0 mi NW 21.9 mph 28.8 mph N/A   Clear
11:15 AM - - - N/A% 30.26 in 10.0 mi NW 26.5 mph 32.2 mph N/A   Clear
11:35 AM 42.8 °F 33.5 °F 24.8 °F 49% 30.26 in 10.0 mi NW 23.0 mph 28.8 mph N/A   Clear
11:55 AM 42.8 °F 32.9 °F 24.8 °F 49% 30.26 in 10.0 mi NW 26.5 mph 32.2 mph N/A   Clear
12:15 PM 44.6 °F 35.9 °F 24.8 °F 46% 30.25 in 10.0 mi WNW 23.0 mph 31.1 mph N/A   Clear
12:35 PM 44.6 °F 36.1 °F 24.8 °F 46% 30.25 in 10.0 mi WNW 21.9 mph 28.8 mph N/A   Clear
12:55 PM 44.6 °F 35.3 °F 21.2 °F 39% 30.25 in 10.0 mi WNW 26.5 mph 33.4 mph N/A   Clear
1:15 PM - - - N/A% 30.23 in 10.0 mi WNW 25.3 mph 34.5 mph N/A   Clear
1:35 PM - - - N/A% 30.23 in 10.0 mi NW 28.8 mph 34.5 mph N/A   Clear
1:55 PM - - - N/A% 30.23 in 10.0 mi NW 33.4 mph 38.0 mph N/A   Clear
2:15 PM 46.4 °F 38.7 °F 17.6 °F 32% 30.23 in 10.0 mi NW 20.7 mph 34.5 mph N/A   Clear
2:35 PM - - - N/A% 30.22 in 10.0 mi NW 29.9 mph 35.7 mph N/A   Clear
2:55 PM - - - N/A% 30.22 in 10.0 mi NW 27.6 mph 32.2 mph N/A   Clear
3:15 PM - - - N/A% 30.22 in 10.0 mi NW 25.3 mph 31.1 mph N/A   Clear
3:35 PM - - - N/A% 30.22 in 10.0 mi WNW 27.6 mph 36.8 mph N/A   Partly Cloudy
3:55 PM - - - N/A% 30.22 in 10.0 mi WNW 27.6 mph 35.7 mph N/A   Clear
4:15 PM - - - N/A% 30.22 in 10.0 mi WNW 24.2 mph 35.7 mph N/A   Clear
4:35 PM - - - N/A% 30.22 in 10.0 mi WNW 27.6 mph 32.2 mph N/A   Clear
4:55 PM 44.6 °F 36.9 °F 15.8 °F 31% 30.22 in 10.0 mi WNW 18.4 mph - N/A   Clear
5:15 PM 42.8 °F 34.8 °F 14.0 °F 31% 30.22 in 10.0 mi WNW 17.3 mph - N/A   Clear
5:55 PM 39.2 °F 31.2 °F 14.0 °F 36% 30.23 in 10.0 mi WNW 13.8 mph - N/A   Clear
6:15 PM 39.2 °F 33.0 °F 12.2 °F 33% 30.23 in 10.0 mi West 9.2 mph - N/A   Clear
6:35 PM 37.4 °F 30.8 °F 14.0 °F 38% 30.24 in 10.0 mi WNW 9.2 mph - N/A   Clear
6:55 PM 35.6 °F 28.6 °F 14.0 °F 41% 30.24 in 10.0 mi West 9.2 mph - N/A   Clear
7:15 PM 35.6 °F 28.0 °F 14.0 °F 41% 30.24 in 10.0 mi WNW 10.4 mph - N/A   Clear
7:35 PM 35.6 °F 27.1 °F 14.0 °F 41% 30.24 in 10.0 mi WNW 12.7 mph - N/A   Clear
8:15 PM 33.8 °F 25.8 °F 14.0 °F 44% 30.25 in 10.0 mi WNW 10.4 mph - N/A   Clear
8:35 PM 32.0 °F 23.6 °F 12.2 °F 44% 30.25 in 10.0 mi WNW 10.4 mph - N/A   Clear
8:55 PM 30.2 °F 21.9 °F 12.2 °F 47% 30.26 in 10.0 mi WNW 9.2 mph - N/A   Clear
9:15 PM 32.0 °F 23.0 °F 15.8 °F 51% 30.25 in 10.0 mi West 11.5 mph - N/A   Clear
9:35 PM 33.8 °F 24.3 °F 15.8 °F 48% 30.25 in 10.0 mi West 13.8 mph - N/A   Clear
9:55 PM 33.8 °F 24.3 °F 15.8 °F 48% 30.25 in 10.0 mi West 13.8 mph - N/A   Clear
10:15 PM 32.0 °F 22.5 °F 15.8 °F 51% 30.24 in 10.0 mi West 12.7 mph - N/A   Clear
10:35 PM 32.0 °F 22.1 °F 15.8 °F 51% 30.24 in 10.0 mi West 13.8 mph - N/A   Clear
10:55 PM 32.0 °F 22.5 °F 15.8 °F 51% 30.24 in 10.0 mi WNW 12.7 mph - N/A   Clear
11:15 PM 32.0 °F 22.1 °F 15.8 °F 51% 30.24 in 10.0 mi West 13.8 mph - N/A   Clear
11:35 PM 32.0 °F 22.5 °F 15.8 °F 51% 30.24 in 10.0 mi West 12.7 mph - N/A   Clear
11:55 PM 30.2 °F 19.8 °F 15.8 °F 55% 30.24 in 10.0 mi West 13.8 mph - N/A   Clear